Aeroporto :
LOGIN :

Iscrizione | Disclaimer

   EN    FR    IT 

 










Sommario :    VFR   VFR Marginale   IFR   IFR Intensivo   IFR Molto Intensivo
Visibilità : 
Base nubi : 
>= 8 km
>= 3000ft
5 / 8 km
1000 / 3000 ft
1500m / 5 km
500 / 1000 ft
800 / 1500m
200 / 500 ft
< 800m
< 200 ft
Simboli :   Temporali  Nebbia  Neve Forte  Precipitazioni Forti  Vento > 20 kt
SIGMETs :   Varie  Temporali  Ghiacco  Turbolenza  Onda orograficha  Ceneri Vulcaniche






- Altitudine del aeroporto : 396 ft


LFOZ - Orléans St Denis

ULTIMO METAR :
  • 210030Z AUTO 25005KT CAVOK 03/02 Q1028

METARs OBSOLETI :
  • 210000Z AUTO 26004KT CAVOK 03/02 Q1028
  • 202330Z AUTO 24005KT CAVOK 04/02 Q1028
  • 202300Z AUTO 26005KT CAVOK 05/02 Q1028
  • 202230Z AUTO 27004KT CAVOK 05/02 Q1027
  • 202200Z AUTO 28007KT CAVOK 05/03 Q1027

TAF N/A



MetMap, La meteo Aeronautica in un colpo d'occhio ! - Copyright ORBIFLY Dicembre 2007 - Disclaimer

ORBIFLY MET'MAP TEAM :

Programmazione e sviluppo : Alexandra Zaïnal
Concezione : Baudouin d'Aumeries
Aiuto per la programmazione : Marc-Olivier Méhu
Supporto tecnico e logistico : Manuel Goepfert
Aiuto per la traduzione : Arnaldo La Scala

Contatto : metmap@orbifly.com




FONTI E CREDITI :

   NOAA